| time (UTC) | temp C | wind direction | speed KPH | gust KPH | rain 1hr cm | rain 24hr cm | rain mn cm | humidity % | barometer mb |
| 20260503053017 | 12 | 175 | 11.3 | 25.7 | 0.00 | 0.00 | 0.00 | 71 | 1017.3 |
| 20260503051511 | 12 | 134 | 0.0 | 0.0 | 0.00 | 0.00 | 0.00 | 72 | 1017.4 |
| 20260503050006 | 11 | 134 | 0.0 | 0.0 | 0.00 | 0.00 | 0.00 | 72 | 1017.4 |
| 20260503044501 | 10 | 134 | 0.0 | 0.0 | 0.00 | 0.00 | 0.00 | 78 | 1017.3 |
| 20260503043059 | 10 | 134 | 0.0 | 0.0 | 0.00 | 0.00 | 0.00 | 76 | 1017.2 |
| 20260503041556 | 8 | 134 | 0.0 | 0.0 | 0.00 | 0.00 | 0.00 | 78 | 1017.2 |
| 20260503040050 | 8 | 134 | 0.0 | 0.0 | 0.00 | 0.00 | 0.00 | 78 | 1017.1 |
| 20260503034553 | 8 | 134 | 0.0 | 0.0 | 0.00 | 0.00 | 0.00 | 79 | 1017.1 |
| 20260503033047 | 8 | 127 | 0.0 | 0.0 | 0.00 | 0.00 | 0.00 | 78 | 1016.9 |
| 20260503031547 | 8 | 127 | 0.0 | 0.0 | 0.00 | 0.00 | 0.00 | 78 | 1017.0 |
| 20260503030050 | 8 | 127 | 0.0 | 0.0 | 0.00 | 0.00 | 0.00 | 78 | 1016.9 |
| 20260503024548 | 8 | 127 | 0.0 | 0.0 | 0.00 | 0.00 | 0.00 | 77 | 1016.8 |
| 20260503023047 | 8 | 127 | 0.0 | 0.0 | 0.00 | 0.00 | 0.00 | 77 | 1016.9 |
| 20260503021546 | 8 | 127 | 0.0 | 0.0 | 0.00 | 0.00 | 0.00 | 78 | 1016.8 |
| 20260503020042 | 8 | 126 | 4.8 | 19.3 | 0.00 | 0.00 | 0.00 | 77 | 1016.8 |
| 20260503014549 | 9 | 117 | 0.0 | 0.0 | 0.00 | 0.00 | 0.00 | 78 | 1016.6 |
| 20260503013038 | 9 | 117 | 0.0 | 0.0 | 0.00 | 0.00 | 0.00 | 76 | 1016.7 |
| 20260503011537 | 9 | 117 | 0.0 | 0.0 | 0.00 | 0.00 | 0.00 | 74 | 1016.7 |
| 20260503010037 | 10 | 117 | 0.0 | 0.0 | 0.00 | 0.00 | 0.00 | 74 | 1016.7 |
| 20260503004534 | 10 | 117 | 0.0 | 0.0 | 0.00 | 0.00 | 0.00 | 73 | 1016.8 |
| 20260503003035 | 10 | 117 | 0.0 | 0.0 | 0.00 | 0.00 | 0.00 | 71 | 1016.8 |
| 20260503001529 | 10 | 117 | 0.0 | 0.0 | 0.00 | 0.00 | 0.00 | 70 | 1016.9 |
| 20260503000030 | 10 | 117 | 0.0 | 0.0 | 0.00 | 0.00 | 0.00 | 70 | 1017.0 |
| 20260502234542 | 11 | 117 | 0.0 | 0.0 | 0.00 | 0.00 | 0.00 | 69 | 1017.1 |
| 20260502233021 | 11 | 117 | 0.0 | 0.0 | 0.00 | 0.00 | 0.00 | 70 | 1017.2 |
| 20260502231524 | 11 | 117 | 0.0 | 0.0 | 0.00 | 0.00 | 0.00 | 69 | 1017.4 |
| 20260502230017 | 11 | 117 | 0.0 | 0.0 | 0.00 | 0.00 | 0.00 | 68 | 1017.4 |
| 20260502224516 | 12 | 117 | 0.0 | 0.0 | 0.00 | 0.00 | 0.00 | 66 | 1017.5 |
| 20260502223032 | 12 | 117 | 0.0 | 0.0 | 0.00 | 0.00 | 0.00 | 66 | 1017.6 |
| 20260502221509 | 12 | 117 | 0.0 | 0.0 | 0.00 | 0.00 | 0.00 | 66 | 1017.7 |
| 20260502220007 | 13 | 117 | 0.0 | 0.0 | 0.00 | 0.00 | 0.00 | 65 | 1017.5 |
| 20260502214505 | 13 | 117 | 0.0 | 0.0 | 0.00 | 0.00 | 0.00 | 65 | 1017.6 |
| 20260502213005 | 14 | 117 | 0.0 | 0.0 | 0.00 | 0.00 | 0.00 | 63 | 1017.7 |
| 20260502211504 | 14 | 117 | 0.0 | 0.0 | 0.00 | 0.00 | 0.00 | 60 | 1017.7 |
| 20260502210004 | 15 | 117 | 0.0 | 0.0 | 0.00 | 0.00 | 0.00 | 57 | 1017.7 |
| 20260502204504 | 15 | 117 | 0.0 | 0.0 | 0.00 | 0.00 | 0.00 | 55 | 1017.9 |
| 20260502203004 | 16 | 117 | 0.0 | 0.0 | 0.00 | 0.00 | 0.00 | 56 | 1017.9 |
| 20260502201503 | 16 | 117 | 0.0 | 0.0 | 0.00 | 0.00 | 0.00 | 52 | 1018.1 |
| 20260502200003 | 16 | 117 | 0.0 | 0.0 | 0.00 | 0.00 | 0.00 | 49 | 1018.1 |
| 20260502194503 | 17 | 117 | 0.0 | 0.0 | 0.00 | 0.00 | 0.00 | 47 | 1018.2 |
| 20260502193002 | 17 | 117 | 0.0 | 0.0 | 0.00 | 0.00 | 0.00 | 46 | 1018.2 |
| 20260502191501 | 18 | 117 | 0.0 | 0.0 | 0.00 | 0.00 | 0.00 | 45 | 1018.1 |
| 20260502190100 | 19 | 117 | 0.0 | 0.0 | 0.00 | 0.00 | 0.00 | 44 | 1018.1 |
| 20260502184600 | 20 | 117 | 0.0 | 0.0 | 0.00 | 0.00 | 0.00 | 39 | 1017.9 |
| 20260502183108 | 20 | 117 | 0.0 | 0.0 | 0.00 | 0.00 | 0.00 | 39 | 1017.8 |
| 20260502181601 | 20 | 117 | 0.0 | 0.0 | 0.00 | 0.00 | 0.00 | 37 | 1017.6 |
| 20260502163106 | 23 | 109 | 4.8 | 16.1 | 0.00 | 0.00 | 0.00 | 32 | 1017.9 |
| 20260502161604 | 23 | 114 | 4.8 | 16.1 | 0.00 | 0.00 | 0.00 | 32 | 1018.1 |
| 20260502151544 | 24 | 75 | 0.0 | 16.1 | 0.00 | 0.00 | 0.00 | 30 | 1018.6 |
| 20260502123031 | 23 | 61 | 0.0 | 12.9 | 0.00 | 0.00 | 0.00 | 32 | 1020.5 |
| 20260502121525 | 23 | 101 | 0.0 | 17.7 | 0.00 | 0.00 | 0.00 | 33 | 1020.8 |
| 20260502114516 | 23 | 158 | 1.6 | 11.3 | 0.00 | 0.00 | 0.00 | 35 | 1021.3 |
| 20260502113014 | 22 | 163 | 9.7 | 24.1 | 0.00 | 0.00 | 0.00 | 37 | 1021.4 |
| 20260502111511 | 21 | 132 | 0.0 | 22.5 | 0.00 | 0.00 | 0.00 | 35 | 1021.6 |
| 20260502110012 | 22 | 23 | 1.6 | 20.9 | 0.00 | 0.00 | 0.00 | 33 | 1021.7 |
| 20260502104514 | 21 | 96 | 8.0 | 20.9 | 0.00 | 0.00 | 0.00 | 35 | 1022.0 |
| 20260502103003 | 21 | 98 | 0.0 | 12.9 | 0.00 | 0.00 | 0.00 | 37 | 1022.3 |
| 20260502101605 | 21 | 77 | 9.7 | 25.7 | 0.00 | 0.00 | 0.00 | 36 | 1022.4 |
| 20260502100104 | 20 | 61 | 0.0 | 27.4 | 0.00 | 0.00 | 0.00 | 36 | 1022.5 |
| 20260502071512 | 17 | 25 | 1.6 | 19.3 | 0.00 | 0.00 | 0.00 | 50 | 1023.7 |
| 20260502070015 | 16 | 23 | 12.9 | 22.5 | 0.00 | 0.00 | 0.00 | 52 | 1023.7 |
| 20260502064505 | 16 | 11 | 0.0 | 11.3 | 0.00 | 0.00 | 0.00 | 60 | 1023.7 |
| 20260502063101 | 15 | 20 | 0.0 | 0.0 | 0.00 | 0.00 | 0.00 | 61 | 1023.7 |
| 20260502061556 | 14 | 20 | 0.0 | 0.0 | 0.00 | 0.00 | 0.00 | 64 | 1023.8 |
| 20260502060054 | 13 | 20 | 0.0 | 0.0 | 0.00 | 0.00 | 0.00 | 66 | 1023.8 |
| 20260502054548 | 12 | 20 | 0.0 | 0.0 | 0.00 | 0.00 | 0.00 | 70 | 1023.7 |